This demonstration page uses our WeatherBlox Daily Observations layout. Learn more.

Left ArrowRight Arrow

Hourly Observations for September 5, 2018

Temp ( °F °C ) Dew Point ( °F °C ) Humidity (%) Winds ( mph kmh ) Pressure ( in mb ) Visibility ( mi km ) Precip ( " mm )
12:53 am 00:53 Clear 76 24.4 67 19.4 74 74 SE 12 19 29.87 1012 10 16 0.00 0.00
1:53 am 01:53 Clear 74 23.3 67 19.4 79 79 SE 10 17 29.87 1011 10 16 0.00 0.00
2:53 am 02:53 Clear 73 22.8 68 20 84 84 ESE 8 13 29.87 1012 10 16 0.00 0.00
3:53 am 03:53 Clear 72 22.2 68 20 87 87 ESE 9 15 29.88 1012 10 16 0.00 0.00
4:53 am 04:53 Clear 71 21.7 68 20 90 90 ESE 9 15 29.89 1012 10 16 0.00 0.00
5:53 am 05:53 Clear 71 21.7 68 20 90 90 ESE 9 15 29.90 1012 10 16 0.00 0.00
6:53 am 06:53 Clear 70 21.1 68 20 93 93 E 7 11 29.91 1013 10 16 0.00 0.00
7:53 am 07:53 Sunny 70 21.1 68 20 93 93 E 9 15 29.94 1014 9 14 0.00 0.00
8:53 am 08:53 Sunny 73 22.8 68 20 84 84 ESE 13 20 29.95 1014 10 16 0.00 0.00
9:53 am 09:53 Partly Cloudy 76 24.4 68 20 77 77 ESE 13 20 29.96 1015 10 16 0.00 0.00
10:33 am 10:33 Mostly Cloudy 78 25.6 68 20 71 71 SSE 7 11 29.97 1015 10 16 0.00 0.00
10:49 am 10:49 Partly Cloudy 79 26 66 19 65 65 SE 7 11 29.97 1015 10 16 0.00 0.00
10:53 am 10:53 Partly Cloudy 79 26.1 67 19.4 67 67 SE 3 6 29.98 1015 10 16 0.00 0.00
11:53 am 11:53 Partly Cloudy 81 27.2 66 18.9 61 61 SE 3 6 29.99 1016 10 16 0.00 0.00
12:53 pm 12:53 Mostly Sunny 84 28.9 66 18.9 55 55 VRB 5 7 29.98 1015 10 16 0.00 0.00
1:53 pm 13:53 Partly Cloudy 86 30 63 17.2 46 46 VRB 7 11 29.96 1014 10 16 0.00 0.00
2:53 pm 14:53 Mostly Sunny 89 31.7 60 15.6 38 38 ENE 10 17 29.92 1013 10 16 0.00 0.00
3:53 pm 15:53 Mostly Sunny 91 32.8 59 15 34 34 ENE 8 13 29.89 1012 10 16 0.00 0.00
4:53 pm 16:53 Sunny 92 33.3 59 15 33 33 NE 8 13 29.87 1012 10 16 0.00 0.00
5:53 pm 17:53 Sunny 91 32.8 58 14.4 33 33 E 10 17 29.86 1011 10 16 0.00 0.00
6:53 pm 18:53 Sunny 91 32.8 56 13.3 31 31 ENE 9 15 29.88 1012 10 16 0.00 0.00
7:53 pm 19:53 Sunny 86 30 62 16.7 45 45 E 12 19 29.91 1013 10 16 0.00 0.00
8:53 pm 20:53 Cloudy with Nearby Thunderstorms 78 25.6 63 17.2 60 60 NNE 20 31 29.98 1015 10 16 0.00 0.00
9:00 pm 21:00 Cloudy with Nearby Thunderstorms 78 25.6 65 18.3 64 64 NE 22 35 29.97 1015 10 16 0.00 0.00
9:39 pm 21:39 Cloudy with Thunderstorms 77 25 64 17.8 64 64 NNE 17 28 29.97 1015 10 16 0.00 0.00
9:53 pm 21:53 Cloudy with Nearby Thunderstorms 77 25 64 17.8 64 64 NE 17 28 30.01 1016 10 16 0.00 0.00
10:25 pm 22:25 Clear 76 24.4 65 18.3 69 69 NNE 10 17 30.00 1016 10 16 0.00 0.00
10:53 pm 22:53 Clear 75 23.9 65 18.3 71 71 N 5 7 30.04 1017 10 16 0.00 0.00
11:53 pm 23:53 Clear 73 22.8 66 18.9 79 79 NNE 5 7 30.04 1017 10 16 0.00 0.00

Powered by AerisWeather